Location: Bathurst
(33.4193°S, 149.5775°E)
Time: 01:12:45
(UTC+10:00)

A-11 Canister half - Pass Details

Date: 17 June 2021
Orbit: 1513 x 1687 km, 47.2° (Epoch: 28 July)

Event Time Altitude Azimuth Distance (km) Brightness Sun altitude
Rises 19:11:56 0° 264° (W) 4,722 12.7 -26.5°
Reaches altitude 10° 19:15:18 10° 255° (WSW) 3,763 11.8 -27.2°
Maximum altitude 19:24:03 38° 189° (S) 2,296 9.8 -29.0°
Enters shadow 19:26:55 32° 157° (SSE) 2,518 9.8 -29.6°
